Year,Month,Day,Hour,Minute,Value (Times are PST for temperature in C)
2019,04,04,00,00,11.30
2019,04,04,00,01,11.30
2019,04,04,00,02,11.30
2019,04,04,00,03,11.30
2019,04,04,00,04,11.30
2019,04,04,00,05,11.30
2019,04,04,00,06,11.30
2019,04,04,00,07,11.30
2019,04,04,00,08,11.20
2019,04,04,00,09,11.20
2019,04,04,00,10,11.30
2019,04,04,00,11,11.30
2019,04,04,00,12,11.30
2019,04,04,00,13,11.30
2019,04,04,00,14,11.30
2019,04,04,00,15,11.30
2019,04,04,00,16,11.30
2019,04,04,00,17,11.30
2019,04,04,00,18,11.30
2019,04,04,00,19,11.30
2019,04,04,00,20,11.30
2019,04,04,00,21,11.30
2019,04,04,00,22,11.30
2019,04,04,00,23,11.30
2019,04,04,00,24,11.30
2019,04,04,00,25,11.40
2019,04,04,00,26,11.40
2019,04,04,00,27,11.40
2019,04,04,00,28,11.40
2019,04,04,00,29,11.40
2019,04,04,00,30,11.40
2019,04,04,00,31,11.40
2019,04,04,00,32,11.40
2019,04,04,00,33,11.40
2019,04,04,00,34,11.40
2019,04,04,00,35,11.40
2019,04,04,00,36,11.40
2019,04,04,00,37,11.40
2019,04,04,00,38,11.40
2019,04,04,00,39,11.40
2019,04,04,00,40,11.40
2019,04,04,00,41,11.40
2019,04,04,00,42,11.40
2019,04,04,00,43,11.40
2019,04,04,00,44,11.40
2019,04,04,00,45,11.40
2019,04,04,00,46,11.40
2019,04,04,00,47,11.40
2019,04,04,00,48,11.40
2019,04,04,00,49,11.40
2019,04,04,00,50,11.40
2019,04,04,00,51,11.40
2019,04,04,00,52,11.40
2019,04,04,00,53,11.40
2019,04,04,00,54,11.40
2019,04,04,00,55,11.40
2019,04,04,00,56,11.40
2019,04,04,00,57,11.40
2019,04,04,00,58,11.40
2019,04,04,00,59,11.50
2019,04,04,01,00,11.50
2019,04,04,01,01,11.50
2019,04,04,01,02,11.50
2019,04,04,01,03,11.50
2019,04,04,01,04,11.50
2019,04,04,01,05,11.50
2019,04,04,01,06,11.50
2019,04,04,01,07,11.50
2019,04,04,01,08,11.50
2019,04,04,01,09,11.50
2019,04,04,01,10,11.50
2019,04,04,01,11,11.50
2019,04,04,01,12,11.50
2019,04,04,01,13,11.50
2019,04,04,01,14,11.50
2019,04,04,01,15,11.50
2019,04,04,01,16,11.50
2019,04,04,01,17,11.50
2019,04,04,01,18,11.50
2019,04,04,01,19,11.50
2019,04,04,01,20,11.40
2019,04,04,01,21,11.40
2019,04,04,01,22,11.40
2019,04,04,01,23,11.40
2019,04,04,01,24,11.40
2019,04,04,01,25,11.40
2019,04,04,01,26,11.40
2019,04,04,01,27,11.40
2019,04,04,01,28,11.40
2019,04,04,01,29,11.40
2019,04,04,01,30,11.40
2019,04,04,01,31,11.40
2019,04,04,01,32,11.40
2019,04,04,01,33,11.40
2019,04,04,01,34,11.40
2019,04,04,01,35,11.40
2019,04,04,01,36,11.30
2019,04,04,01,37,11.30
2019,04,04,01,38,11.30
2019,04,04,01,39,11.30
2019,04,04,01,40,11.30
2019,04,04,01,41,11.30
2019,04,04,01,42,11.30
2019,04,04,01,43,11.30
2019,04,04,01,44,11.30
2019,04,04,01,45,11.30
2019,04,04,01,46,11.30
2019,04,04,01,47,11.30
2019,04,04,01,48,11.30
2019,04,04,01,49,11.20
2019,04,04,01,50,11.20
2019,04,04,01,51,11.20
2019,04,04,01,52,11.20
2019,04,04,01,53,11.20
2019,04,04,01,54,11.20
2019,04,04,01,55,11.20
2019,04,04,01,56,11.20
2019,04,04,01,57,11.20
2019,04,04,01,58,11.20
2019,04,04,01,59,11.20
2019,04,04,02,00,11.20
2019,04,04,02,01,11.20
2019,04,04,02,02,11.20
2019,04,04,02,03,11.20
2019,04,04,02,04,11.20
2019,04,04,02,05,11.20
2019,04,04,02,06,11.20
2019,04,04,02,07,11.20
2019,04,04,02,08,11.20
2019,04,04,02,09,11.20
2019,04,04,02,10,11.20
2019,04,04,02,11,11.20
2019,04,04,02,12,11.20
2019,04,04,02,13,11.20
2019,04,04,02,14,11.20
2019,04,04,02,15,11.20
2019,04,04,02,16,11.20
2019,04,04,02,17,11.20
2019,04,04,02,18,11.20
2019,04,04,02,19,11.20
2019,04,04,02,20,11.20
2019,04,04,02,21,11.20
2019,04,04,02,22,11.20
2019,04,04,02,23,11.10
2019,04,04,02,24,11.10
2019,04,04,02,25,11.10
2019,04,04,02,26,11.10
2019,04,04,02,27,11.10
2019,04,04,02,28,11.10
2019,04,04,02,29,11.10
2019,04,04,02,30,11.10
2019,04,04,02,31,11.10
2019,04,04,02,32,11.10
2019,04,04,02,33,11.10
2019,04,04,02,34,11.10
2019,04,04,02,35,11.10
2019,04,04,02,36,11.10
2019,04,04,02,37,11.10
2019,04,04,02,38,11.10
2019,04,04,02,39,11.10
2019,04,04,02,40,11.10
2019,04,04,02,41,11.10
2019,04,04,02,42,11.10
2019,04,04,02,43,11.10
2019,04,04,02,44,11.00
2019,04,04,02,45,11.00
2019,04,04,02,46,11.00
2019,04,04,02,47,11.00
2019,04,04,02,48,11.00
2019,04,04,02,49,11.00
2019,04,04,02,50,11.00
2019,04,04,02,51,11.00
2019,04,04,02,52,11.00
2019,04,04,02,53,11.00
2019,04,04,02,54,11.00
2019,04,04,02,55,11.00
2019,04,04,02,56,11.00
2019,04,04,02,57,11.00
2019,04,04,02,58,11.00
2019,04,04,02,59,11.00
2019,04,04,03,00,11.00
2019,04,04,03,01,11.00
2019,04,04,03,02,11.00
2019,04,04,03,03,11.00
2019,04,04,03,04,11.00
2019,04,04,03,05,11.00
2019,04,04,03,06,11.00
2019,04,04,03,07,11.00
2019,04,04,03,08,10.90
2019,04,04,03,09,10.90
2019,04,04,03,10,10.90
2019,04,04,03,11,10.90
2019,04,04,03,12,10.80
2019,04,04,03,13,10.80
2019,04,04,03,14,10.80
2019,04,04,03,15,10.80
2019,04,04,03,16,10.80
2019,04,04,03,17,10.80
2019,04,04,03,18,10.70
2019,04,04,03,19,10.70
2019,04,04,03,20,10.70
2019,04,04,03,21,10.70
2019,04,04,03,22,10.70
2019,04,04,03,23,10.70
2019,04,04,03,24,10.70
2019,04,04,03,25,10.70
2019,04,04,03,26,10.70
2019,04,04,03,27,10.70
2019,04,04,03,28,10.70
2019,04,04,03,29,10.70
2019,04,04,03,30,10.70
2019,04,04,03,31,10.70
2019,04,04,03,32,10.70
2019,04,04,03,33,10.70
2019,04,04,03,34,10.70
2019,04,04,03,35,10.70
2019,04,04,03,36,10.70
2019,04,04,03,37,10.70
2019,04,04,03,38,10.70
2019,04,04,03,39,10.60
2019,04,04,03,40,10.60
2019,04,04,03,41,10.60
2019,04,04,03,42,10.60
2019,04,04,03,43,10.60
2019,04,04,03,44,10.60
2019,04,04,03,45,10.60
2019,04,04,03,46,10.60
2019,04,04,03,47,10.50
2019,04,04,03,48,10.50
2019,04,04,03,49,10.50
2019,04,04,03,50,10.50
2019,04,04,03,51,10.50
2019,04,04,03,52,10.50
2019,04,04,03,53,10.50
2019,04,04,03,54,10.40
2019,04,04,03,55,10.40
2019,04,04,03,56,10.40
2019,04,04,03,57,10.40
2019,04,04,03,58,10.40
2019,04,04,03,59,10.40
2019,04,04,04,00,10.40
2019,04,04,04,01,10.40
2019,04,04,04,02,10.40
2019,04,04,04,03,10.30
2019,04,04,04,04,10.30
2019,04,04,04,05,10.30
2019,04,04,04,06,10.30
2019,04,04,04,07,10.30
2019,04,04,04,08,10.30
2019,04,04,04,09,10.30
2019,04,04,04,10,10.30
2019,04,04,04,11,10.20
2019,04,04,04,12,10.20
2019,04,04,04,13,10.20
2019,04,04,04,14,10.20
2019,04,04,04,15,10.20
2019,04,04,04,16,10.20
2019,04,04,04,17,10.20
2019,04,04,04,18,10.20
2019,04,04,04,19,10.20
2019,04,04,04,20,10.20
2019,04,04,04,21,10.20
2019,04,04,04,22,10.20
2019,04,04,04,23,10.20
2019,04,04,04,24,10.20
2019,04,04,04,25,10.20
2019,04,04,04,26,10.20
2019,04,04,04,27,10.20
2019,04,04,04,28,10.20
2019,04,04,04,29,10.20
2019,04,04,04,30,10.20
2019,04,04,04,31,10.10
2019,04,04,04,32,10.10
2019,04,04,04,33,10.00
2019,04,04,04,34,9.90
2019,04,04,04,35,9.90
2019,04,04,04,36,9.80
2019,04,04,04,37,9.80
2019,04,04,04,38,9.70
2019,04,04,04,39,9.70
2019,04,04,04,40,9.60
2019,04,04,04,41,9.50
2019,04,04,04,42,9.50
2019,04,04,04,43,9.40
2019,04,04,04,44,9.30
2019,04,04,04,45,9.30
2019,04,04,04,46,9.30
2019,04,04,04,47,9.20
2019,04,04,04,48,9.20
2019,04,04,04,49,9.10
2019,04,04,04,50,9.10
2019,04,04,04,51,9.10
2019,04,04,04,52,9.00
2019,04,04,04,53,9.00
2019,04,04,04,54,9.00
2019,04,04,04,55,9.00
2019,04,04,04,56,9.00
2019,04,04,04,57,8.90
2019,04,04,04,58,8.90
2019,04,04,04,59,8.90
2019,04,04,05,00,8.90
2019,04,04,05,01,8.90
2019,04,04,05,02,8.90
2019,04,04,05,03,8.80
2019,04,04,05,04,8.80
2019,04,04,05,05,8.80
2019,04,04,05,06,8.70
2019,04,04,05,07,8.60
2019,04,04,05,08,8.60
2019,04,04,05,09,8.50
2019,04,04,05,10,8.50
2019,04,04,05,11,8.40
2019,04,04,05,12,8.40
2019,04,04,05,13,8.40
2019,04,04,05,14,8.40
2019,04,04,05,15,8.40
2019,04,04,05,16,8.40
2019,04,04,05,17,8.40
2019,04,04,05,18,8.40
2019,04,04,05,19,8.40
2019,04,04,05,20,8.40
2019,04,04,05,21,8.40
2019,04,04,05,22,8.40
2019,04,04,05,23,8.40
2019,04,04,05,24,8.40
2019,04,04,05,25,8.40
2019,04,04,05,26,8.40
2019,04,04,05,27,8.40
2019,04,04,05,28,8.40
2019,04,04,05,29,8.40
2019,04,04,05,30,8.40
2019,04,04,05,31,8.40
2019,04,04,05,32,8.50
2019,04,04,05,33,8.50
2019,04,04,05,34,8.50
2019,04,04,05,35,8.50
2019,04,04,05,36,8.50
2019,04,04,05,37,8.50
2019,04,04,05,38,8.50
2019,04,04,05,39,8.50
2019,04,04,05,40,8.60
2019,04,04,05,41,8.60
2019,04,04,05,42,8.60
2019,04,04,05,43,8.70
2019,04,04,05,44,8.70
2019,04,04,05,45,8.70
2019,04,04,05,46,8.70
2019,04,04,05,47,8.70
2019,04,04,05,48,8.70
2019,04,04,05,49,8.70
2019,04,04,05,50,8.70
2019,04,04,05,51,8.70
2019,04,04,05,52,8.70
2019,04,04,05,53,8.70
2019,04,04,05,54,8.70
2019,04,04,05,55,8.60
2019,04,04,05,56,8.60
2019,04,04,05,57,8.60
2019,04,04,05,58,8.50
2019,04,04,05,59,8.50
2019,04,04,06,00,8.40
2019,04,04,06,01,8.40
2019,04,04,06,02,8.40
2019,04,04,06,03,8.40
2019,04,04,06,04,8.40
2019,04,04,06,05,8.40
2019,04,04,06,06,8.30
2019,04,04,06,07,8.30
2019,04,04,06,08,8.30
2019,04,04,06,09,8.30
2019,04,04,06,10,8.30
2019,04,04,06,11,8.30
2019,04,04,06,12,8.30
2019,04,04,06,13,8.30
2019,04,04,06,14,8.30
2019,04,04,06,15,8.30
2019,04,04,06,16,8.30
2019,04,04,06,17,8.30
2019,04,04,06,18,8.30
2019,04,04,06,19,8.30
2019,04,04,06,20,8.30
2019,04,04,06,21,8.20
2019,04,04,06,22,8.20
2019,04,04,06,23,8.20
2019,04,04,06,24,8.20
2019,04,04,06,25,8.20
2019,04,04,06,26,8.20
2019,04,04,06,27,8.20
2019,04,04,06,28,8.10
2019,04,04,06,29,8.10
2019,04,04,06,30,8.10
2019,04,04,06,31,8.10
2019,04,04,06,32,8.20
2019,04,04,06,33,8.20
2019,04,04,06,34,8.20
2019,04,04,06,35,8.20
2019,04,04,06,36,8.20
2019,04,04,06,37,8.20
2019,04,04,06,38,8.30
2019,04,04,06,39,8.30
2019,04,04,06,40,8.30
2019,04,04,06,41,8.30
2019,04,04,06,42,8.30
2019,04,04,06,43,8.30
2019,04,04,06,44,8.30
2019,04,04,06,45,8.20
2019,04,04,06,46,8.20
2019,04,04,06,47,8.20
2019,04,04,06,48,8.20
2019,04,04,06,49,8.20
2019,04,04,06,50,8.20
2019,04,04,06,51,8.20
2019,04,04,06,52,8.20
2019,04,04,06,53,8.20
2019,04,04,06,54,8.20
2019,04,04,06,55,8.20
2019,04,04,06,56,8.20
2019,04,04,06,57,8.10
2019,04,04,06,58,8.10
2019,04,04,06,59,8.10
2019,04,04,07,00,8.10
2019,04,04,07,01,8.10
2019,04,04,07,02,8.10
2019,04,04,07,03,8.10
2019,04,04,07,04,8.10
2019,04,04,07,05,8.10
2019,04,04,07,06,8.10
2019,04,04,07,07,8.10
2019,04,04,07,08,8.10
2019,04,04,07,09,8.10
2019,04,04,07,10,8.10
2019,04,04,07,11,8.10
2019,04,04,07,12,8.10
2019,04,04,07,13,8.10
2019,04,04,07,14,8.10
2019,04,04,07,15,8.10
2019,04,04,07,16,8.10
2019,04,04,07,17,8.10
2019,04,04,07,18,8.10
2019,04,04,07,19,8.10
2019,04,04,07,20,8.20
2019,04,04,07,21,8.20
2019,04,04,07,22,8.20
2019,04,04,07,23,8.20
2019,04,04,07,24,8.20
2019,04,04,07,25,8.20
2019,04,04,07,26,8.20
2019,04,04,07,27,8.20
2019,04,04,07,28,8.20
2019,04,04,07,29,8.20
2019,04,04,07,30,8.20
2019,04,04,07,31,8.30
2019,04,04,07,32,8.30
2019,04,04,07,33,8.30
2019,04,04,07,34,8.30
2019,04,04,07,35,8.30
2019,04,04,07,36,8.30
2019,04,04,07,37,8.30
2019,04,04,07,38,8.30
2019,04,04,07,39,8.30
2019,04,04,07,40,8.30
2019,04,04,07,41,8.30
2019,04,04,07,42,8.30
2019,04,04,07,43,8.30
2019,04,04,07,44,8.40
2019,04,04,07,45,8.40
2019,04,04,07,46,8.40
2019,04,04,07,47,8.40
2019,04,04,07,48,8.40
2019,04,04,07,49,8.50
2019,04,04,07,50,8.50
2019,04,04,07,51,8.60
2019,04,04,07,52,8.60
2019,04,04,07,53,8.60
2019,04,04,07,54,8.70
2019,04,04,07,55,8.70
2019,04,04,07,56,8.80
2019,04,04,07,57,8.80
2019,04,04,07,58,8.80
2019,04,04,07,59,8.90
2019,04,04,08,00,8.90
2019,04,04,08,01,9.00
2019,04,04,08,02,9.00
2019,04,04,08,03,9.10
2019,04,04,08,04,9.10
2019,04,04,08,05,9.20
2019,04,04,08,06,9.20
2019,04,04,08,07,9.20
2019,04,04,08,08,9.30
2019,04,04,08,09,9.30
2019,04,04,08,10,9.30
2019,04,04,08,11,9.30
2019,04,04,08,12,9.40
2019,04,04,08,13,9.40
2019,04,04,08,14,9.40
2019,04,04,08,15,9.50
2019,04,04,08,16,9.50
2019,04,04,08,17,9.50
2019,04,04,08,18,9.60
2019,04,04,08,19,9.60
2019,04,04,08,20,9.60
2019,04,04,08,21,9.60
2019,04,04,08,22,9.60
2019,04,04,08,23,9.70
2019,04,04,08,24,9.70
2019,04,04,08,25,9.70
2019,04,04,08,26,9.70
2019,04,04,08,27,9.80
2019,04,04,08,28,9.80
2019,04,04,08,29,9.80
2019,04,04,08,30,9.90
2019,04,04,08,31,9.90
2019,04,04,08,32,10.00
2019,04,04,08,33,10.00
2019,04,04,08,34,10.00
2019,04,04,08,35,10.00
2019,04,04,08,36,10.00
2019,04,04,08,37,10.10
2019,04,04,08,38,10.20
2019,04,04,08,39,10.30
2019,04,04,08,40,10.30
2019,04,04,08,41,10.40
2019,04,04,08,42,10.50
2019,04,04,08,43,10.50
2019,04,04,08,44,10.60
2019,04,04,08,45,10.60
2019,04,04,08,46,10.70
2019,04,04,08,47,10.70
2019,04,04,08,48,10.80
2019,04,04,08,49,10.80
2019,04,04,08,50,10.80
2019,04,04,08,51,10.80
2019,04,04,08,52,10.80
2019,04,04,08,53,10.80
2019,04,04,08,54,10.90
2019,04,04,08,55,10.90
2019,04,04,08,56,10.90
2019,04,04,08,57,10.90
2019,04,04,08,58,11.00
2019,04,04,08,59,11.00
2019,04,04,09,00,11.00
2019,04,04,09,01,11.10
2019,04,04,09,02,11.10
2019,04,04,09,03,11.10
2019,04,04,09,04,11.10
2019,04,04,09,05,11.10
2019,04,04,09,06,11.10
2019,04,04,09,07,11.00
2019,04,04,09,08,10.90
2019,04,04,09,09,10.90
2019,04,04,09,10,10.90
2019,04,04,09,11,10.90
2019,04,04,09,12,10.90
2019,04,04,09,13,10.90
2019,04,04,09,14,10.90
2019,04,04,09,15,10.90
2019,04,04,09,16,11.00
2019,04,04,09,17,11.00
2019,04,04,09,18,11.00
2019,04,04,09,19,11.10
2019,04,04,09,20,11.10
2019,04,04,09,21,11.10
2019,04,04,09,22,11.10
2019,04,04,09,23,11.20
2019,04,04,09,24,11.20
2019,04,04,09,25,11.20
2019,04,04,09,26,11.20
2019,04,04,09,27,11.20
2019,04,04,09,28,11.20
2019,04,04,09,29,11.30
2019,04,04,09,30,11.30
2019,04,04,09,31,11.40
2019,04,04,09,32,11.50
2019,04,04,09,33,11.60
2019,04,04,09,34,11.70
2019,04,04,09,35,11.80
2019,04,04,09,36,11.80
2019,04,04,09,37,11.80
2019,04,04,09,38,11.80
2019,04,04,09,39,11.80
2019,04,04,09,40,11.90
2019,04,04,09,41,11.90
2019,04,04,09,42,11.90
2019,04,04,09,43,11.90
2019,04,04,09,44,12.00
2019,04,04,09,45,12.10
2019,04,04,09,46,12.10
2019,04,04,09,47,12.10
2019,04,04,09,48,12.10
2019,04,04,09,49,12.10
2019,04,04,09,50,12.00
2019,04,04,09,51,12.10
2019,04,04,09,52,12.10
2019,04,04,09,53,12.20
2019,04,04,09,54,12.20
2019,04,04,09,55,12.30
2019,04,04,09,56,12.20
2019,04,04,09,57,12.20
2019,04,04,09,58,12.20
2019,04,04,09,59,12.20
2019,04,04,10,00,12.20
2019,04,04,10,01,12.30
2019,04,04,10,02,12.30
2019,04,04,10,03,12.30
2019,04,04,10,04,12.30
2019,04,04,10,05,12.30
2019,04,04,10,06,12.30
2019,04,04,10,07,12.30
2019,04,04,10,08,12.30
2019,04,04,10,09,12.40
2019,04,04,10,10,12.40
2019,04,04,10,11,12.50
2019,04,04,10,12,12.50
2019,04,04,10,13,12.60
2019,04,04,10,14,12.70
2019,04,04,10,15,12.70
2019,04,04,10,16,12.70
2019,04,04,10,17,12.60
2019,04,04,10,18,12.50
2019,04,04,10,19,12.50
2019,04,04,10,20,12.60
2019,04,04,10,21,12.70
2019,04,04,10,22,12.70
2019,04,04,10,23,12.80
2019,04,04,10,24,13.00
2019,04,04,10,25,13.00
2019,04,04,10,26,13.10
2019,04,04,10,27,13.00
2019,04,04,10,28,12.90
2019,04,04,10,29,12.90
2019,04,04,10,30,12.90
2019,04,04,10,31,12.90
2019,04,04,10,32,13.00
2019,04,04,10,33,13.10
2019,04,04,10,34,13.10
2019,04,04,10,35,13.10
2019,04,04,10,36,13.00
2019,04,04,10,37,13.00
2019,04,04,10,38,13.00
2019,04,04,10,39,13.00
2019,04,04,10,40,12.90
2019,04,04,10,41,12.90
2019,04,04,10,42,12.90
2019,04,04,10,43,12.90
2019,04,04,10,44,13.00
2019,04,04,10,45,13.10
2019,04,04,10,46,13.20
2019,04,04,10,47,13.30
2019,04,04,10,48,13.30
2019,04,04,10,49,13.40
2019,04,04,10,50,13.40
2019,04,04,10,51,13.40
2019,04,04,10,52,13.30
2019,04,04,10,53,13.20
2019,04,04,10,54,13.20
2019,04,04,10,55,13.20
2019,04,04,10,56,13.20
2019,04,04,10,57,13.20
2019,04,04,10,58,13.20
2019,04,04,10,59,13.30
2019,04,04,11,00,13.40
2019,04,04,11,01,13.40
2019,04,04,11,02,13.40
2019,04,04,11,03,13.30
2019,04,04,11,04,13.30
2019,04,04,11,05,13.20
2019,04,04,11,06,13.20
2019,04,04,11,07,13.10
2019,04,04,11,08,13.10
2019,04,04,11,09,13.20
2019,04,04,11,10,13.30
2019,04,04,11,11,13.30
2019,04,04,11,12,13.30
2019,04,04,11,13,13.40
2019,04,04,11,14,13.50
2019,04,04,11,15,13.40
2019,04,04,11,16,13.40
2019,04,04,11,17,13.30
2019,04,04,11,18,13.30
2019,04,04,11,19,13.30
2019,04,04,11,20,13.30
2019,04,04,11,21,13.30
2019,04,04,11,22,13.30
2019,04,04,11,23,13.20
2019,04,04,11,24,13.20
2019,04,04,11,25,13.20
2019,04,04,11,26,13.20
2019,04,04,11,27,13.30
2019,04,04,11,28,13.30
2019,04,04,11,29,13.30
2019,04,04,11,30,13.30
2019,04,04,11,31,13.20
2019,04,04,11,32,13.10
2019,04,04,11,33,13.00
2019,04,04,11,34,13.00
2019,04,04,11,35,13.10
2019,04,04,11,36,13.20
2019,04,04,11,37,13.30
2019,04,04,11,38,13.40
2019,04,04,11,39,13.40
2019,04,04,11,40,13.30
2019,04,04,11,41,13.30
2019,04,04,11,42,13.30
2019,04,04,11,43,13.40
2019,04,04,11,44,13.40
2019,04,04,11,45,13.50
2019,04,04,11,46,13.60
2019,04,04,11,47,13.70
2019,04,04,11,48,13.80
2019,04,04,11,49,13.80
2019,04,04,11,50,13.90
2019,04,04,11,51,13.90
2019,04,04,11,52,13.90
2019,04,04,11,53,13.90
2019,04,04,11,54,13.90
2019,04,04,11,55,13.90
2019,04,04,11,56,13.90
2019,04,04,11,57,13.80
2019,04,04,11,58,13.70
2019,04,04,11,59,13.60
2019,04,04,12,00,13.60
2019,04,04,12,01,13.60
2019,04,04,12,02,13.60
2019,04,04,12,03,13.60
2019,04,04,12,04,13.60
2019,04,04,12,05,13.70
2019,04,04,12,06,13.80
2019,04,04,12,07,14.00
2019,04,04,12,08,14.10
2019,04,04,12,09,14.10
2019,04,04,12,10,14.10
2019,04,04,12,11,14.10
2019,04,04,12,12,14.20
2019,04,04,12,13,14.20
2019,04,04,12,14,14.30
2019,04,04,12,15,14.30
2019,04,04,12,16,14.30
2019,04,04,12,17,14.40
2019,04,04,12,18,14.40
2019,04,04,12,19,14.40
2019,04,04,12,20,14.40
2019,04,04,12,21,14.50
2019,04,04,12,22,14.60
2019,04,04,12,23,14.60
2019,04,04,12,24,14.60
2019,04,04,12,25,14.70
2019,04,04,12,26,14.80
2019,04,04,12,27,14.80
2019,04,04,12,28,14.90
2019,04,04,12,29,14.90
2019,04,04,12,30,15.00
2019,04,04,12,31,15.10
2019,04,04,12,32,15.20
2019,04,04,12,33,15.20
2019,04,04,12,34,15.20
2019,04,04,12,35,15.20
2019,04,04,12,36,15.20
2019,04,04,12,37,15.20
2019,04,04,12,38,15.20
2019,04,04,12,39,15.30
2019,04,04,12,40,15.30
2019,04,04,12,41,15.30
2019,04,04,12,42,15.30
2019,04,04,12,43,15.20
2019,04,04,12,44,15.10
2019,04,04,12,45,15.00
2019,04,04,12,46,14.90
2019,04,04,12,47,14.90
2019,04,04,12,48,14.90
2019,04,04,12,49,15.00
2019,04,04,12,50,15.10
2019,04,04,12,51,15.20
2019,04,04,12,52,15.40
2019,04,04,12,53,15.50
2019,04,04,12,54,15.50
2019,04,04,12,55,15.40
2019,04,04,12,56,15.30
2019,04,04,12,57,15.20
2019,04,04,12,58,15.00
2019,04,04,12,59,15.00
2019,04,04,13,00,14.90
2019,04,04,13,01,15.00
2019,04,04,13,02,15.00
2019,04,04,13,03,15.10
2019,04,04,13,04,15.10
2019,04,04,13,05,15.20
2019,04,04,13,06,15.20
2019,04,04,13,07,15.30
2019,04,04,13,08,15.30
2019,04,04,13,09,15.30
2019,04,04,13,10,15.40
2019,04,04,13,11,15.50
2019,04,04,13,12,15.70
2019,04,04,13,13,15.80
2019,04,04,13,14,15.80
2019,04,04,13,15,15.80
2019,04,04,13,16,15.70
2019,04,04,13,17,15.60
2019,04,04,13,18,15.50
2019,04,04,13,19,15.40
2019,04,04,13,20,15.40
2019,04,04,13,21,15.20
2019,04,04,13,22,15.10
2019,04,04,13,23,15.00
2019,04,04,13,24,15.00
2019,04,04,13,25,15.00
2019,04,04,13,26,15.10
2019,04,04,13,27,15.20
2019,04,04,13,28,15.20
2019,04,04,13,29,15.30
2019,04,04,13,30,15.40
2019,04,04,13,31,15.50
2019,04,04,13,32,15.60
2019,04,04,13,33,15.60
2019,04,04,13,34,15.60
2019,04,04,13,35,15.70
2019,04,04,13,36,15.80
2019,04,04,13,37,15.90
2019,04,04,13,38,16.00
2019,04,04,13,39,16.00
2019,04,04,13,40,16.00
2019,04,04,13,41,15.90
2019,04,04,13,42,15.80
2019,04,04,13,43,15.70
2019,04,04,13,44,15.70
2019,04,04,13,45,15.70
2019,04,04,13,46,15.70
2019,04,04,13,47,15.70
2019,04,04,13,48,15.70
2019,04,04,13,49,15.70
2019,04,04,13,50,15.70
2019,04,04,13,51,15.60
2019,04,04,13,52,15.50
2019,04,04,13,53,15.40
2019,04,04,13,54,15.30
2019,04,04,13,55,15.30
2019,04,04,13,56,15.30
2019,04,04,13,57,15.30
2019,04,04,13,58,15.40
2019,04,04,13,59,15.40
2019,04,04,14,00,15.40
2019,04,04,14,01,15.40
2019,04,04,14,02,15.30
2019,04,04,14,03,15.30
2019,04,04,14,04,15.20
2019,04,04,14,05,15.20
2019,04,04,14,06,15.30
2019,04,04,14,07,15.40
2019,04,04,14,08,15.40
2019,04,04,14,09,15.30
2019,04,04,14,10,15.30
2019,04,04,14,11,15.20
2019,04,04,14,12,15.20
2019,04,04,14,13,15.20
2019,04,04,14,14,15.20
2019,04,04,14,15,15.30
2019,04,04,14,16,15.40
2019,04,04,14,17,15.50
2019,04,04,14,18,15.60
2019,04,04,14,19,15.60
2019,04,04,14,20,15.70
2019,04,04,14,21,15.70
2019,04,04,14,22,15.70
2019,04,04,14,23,15.60
2019,04,04,14,24,15.60
2019,04,04,14,25,15.50
2019,04,04,14,26,15.40
2019,04,04,14,27,15.30
2019,04,04,14,28,15.30
2019,04,04,14,29,15.40
2019,04,04,14,30,15.40
2019,04,04,14,31,15.50
2019,04,04,14,32,15.50
2019,04,04,14,33,15.50
2019,04,04,14,34,15.60
2019,04,04,14,35,15.70
2019,04,04,14,36,15.80
2019,04,04,14,37,15.80
2019,04,04,14,38,15.80
2019,04,04,14,39,15.80
2019,04,04,14,40,15.80
2019,04,04,14,41,15.80
2019,04,04,14,42,15.70
2019,04,04,14,43,15.70
2019,04,04,14,44,15.60
2019,04,04,14,45,15.60
2019,04,04,14,46,15.50
2019,04,04,14,47,15.40
2019,04,04,14,48,15.40
2019,04,04,14,49,15.40
2019,04,04,14,50,15.40
2019,04,04,14,51,15.40
2019,04,04,14,52,15.40
2019,04,04,14,53,15.40
2019,04,04,14,54,15.40
2019,04,04,14,55,15.40
2019,04,04,14,56,15.40
2019,04,04,14,57,15.40
2019,04,04,14,58,15.40
2019,04,04,14,59,15.50
2019,04,04,15,00,15.70
2019,04,04,15,01,15.80
2019,04,04,15,02,15.90
2019,04,04,15,03,15.90
2019,04,04,15,04,15.80
2019,04,04,15,05,15.60
2019,04,04,15,06,15.50
2019,04,04,15,07,15.50
2019,04,04,15,08,15.50
2019,04,04,15,09,15.60
2019,04,04,15,10,15.50
2019,04,04,15,11,15.50
2019,04,04,15,12,15.50
2019,04,04,15,13,15.40
2019,04,04,15,14,15.40
2019,04,04,15,15,15.40
2019,04,04,15,16,15.40
2019,04,04,15,17,15.50
2019,04,04,15,18,15.60
2019,04,04,15,19,15.60
2019,04,04,15,20,15.70
2019,04,04,15,21,15.70
2019,04,04,15,22,15.70
2019,04,04,15,23,15.80
2019,04,04,15,24,15.80
2019,04,04,15,25,15.80
2019,04,04,15,26,15.70
2019,04,04,15,27,15.60
2019,04,04,15,28,15.60
2019,04,04,15,29,15.60
2019,04,04,15,30,15.60
2019,04,04,15,31,15.60
2019,04,04,15,32,15.70
2019,04,04,15,33,15.80
2019,04,04,15,34,15.90
2019,04,04,15,35,15.90
2019,04,04,15,36,15.90
2019,04,04,15,37,15.80
2019,04,04,15,38,15.70
2019,04,04,15,39,15.60
2019,04,04,15,40,15.60
2019,04,04,15,41,15.60
2019,04,04,15,42,15.60
2019,04,04,15,43,15.70
2019,04,04,15,44,15.70
2019,04,04,15,45,15.70
2019,04,04,15,46,15.70
2019,04,04,15,47,15.70
2019,04,04,15,48,15.60
2019,04,04,15,49,15.50
2019,04,04,15,50,15.40
2019,04,04,15,51,15.30
2019,04,04,15,52,15.30
2019,04,04,15,53,15.20
2019,04,04,15,54,15.20
2019,04,04,15,55,15.20
2019,04,04,15,56,15.20
2019,04,04,15,57,15.30
2019,04,04,15,58,15.40
2019,04,04,15,59,15.40
2019,04,04,16,00,15.40
2019,04,04,16,01,15.30
2019,04,04,16,02,15.30
2019,04,04,16,03,15.30
2019,04,04,16,04,15.40
2019,04,04,16,05,15.50
2019,04,04,16,06,15.60
2019,04,04,16,07,15.70
2019,04,04,16,08,15.70
2019,04,04,16,09,15.70
2019,04,04,16,10,15.80
2019,04,04,16,11,15.90
2019,04,04,16,12,16.00
2019,04,04,16,13,16.10
2019,04,04,16,14,16.20
2019,04,04,16,15,16.30
2019,04,04,16,16,16.20
2019,04,04,16,17,16.00
2019,04,04,16,18,15.90
2019,04,04,16,19,15.80
2019,04,04,16,20,15.70
2019,04,04,16,21,15.60
2019,04,04,16,22,15.50
2019,04,04,16,23,15.50
2019,04,04,16,24,15.50
2019,04,04,16,25,15.50
2019,04,04,16,26,15.60
2019,04,04,16,27,15.60
2019,04,04,16,28,15.50
2019,04,04,16,29,15.40
2019,04,04,16,30,15.40
2019,04,04,16,31,15.30
2019,04,04,16,32,15.40
2019,04,04,16,33,15.40
2019,04,04,16,34,15.50
2019,04,04,16,35,15.60
2019,04,04,16,36,15.60
2019,04,04,16,37,15.60
2019,04,04,16,38,15.50
2019,04,04,16,39,15.50
2019,04,04,16,40,15.40
2019,04,04,16,41,15.40
2019,04,04,16,42,15.40
2019,04,04,16,43,15.40
2019,04,04,16,44,15.50
2019,04,04,16,45,15.60
2019,04,04,16,46,15.60
2019,04,04,16,47,15.70
2019,04,04,16,48,15.80
2019,04,04,16,49,15.80
2019,04,04,16,50,15.80
2019,04,04,16,51,15.90
2019,04,04,16,52,15.90
2019,04,04,16,53,16.00
2019,04,04,16,54,16.00
2019,04,04,16,55,16.00
2019,04,04,16,56,16.00
2019,04,04,16,57,15.90
2019,04,04,16,58,15.90
2019,04,04,16,59,15.90
2019,04,04,17,00,15.80
2019,04,04,17,01,15.80
2019,04,04,17,02,15.80
2019,04,04,17,03,15.80
2019,04,04,17,04,15.70
2019,04,04,17,05,15.70
2019,04,04,17,06,15.70
2019,04,04,17,07,15.80
2019,04,04,17,08,15.80
2019,04,04,17,09,15.80
2019,04,04,17,10,15.80
2019,04,04,17,11,15.80
2019,04,04,17,12,15.80
2019,04,04,17,13,15.80
2019,04,04,17,14,15.80
2019,04,04,17,15,15.80
2019,04,04,17,16,15.90
2019,04,04,17,17,15.90
2019,04,04,17,18,15.90
2019,04,04,17,19,16.00
2019,04,04,17,20,16.00
2019,04,04,17,21,16.00
2019,04,04,17,22,16.10
2019,04,04,17,23,16.00
2019,04,04,17,24,15.90
2019,04,04,17,25,15.90
2019,04,04,17,26,15.90
2019,04,04,17,27,15.80
2019,04,04,17,28,15.80
2019,04,04,17,29,15.80